Presure
161 149 158 155 152 157 154 149 138 160 151 152 153 144 156 113 115 153 143 117 124 141 130 109 135 123 145 137 149 101 93 142 115 147 109 153 162 113 156 153 148 156 152 149 151
151 167 155 158 159 156 154 163 148 153 153 147 139 131 124 130 147 113 114 134 149 132 136 132 153 147 137 123 131 151 149 142 143 107 144 130 132 159 150 125 157 159 145 153 157
162 164 166 159 168 161 160 159 145 156 153 146 147 144 154 142 143 140 140 147 115 145 149 139 132 144 148 156 150 148 141 147 150 146 150 101 150 141 153 148 161 149 163 145 161
154 171 173 162 153 142 152 151 164 153 156 151 151 144 155 156 157 159 137 147 150 141 141 140 141 142 135 143 148 149 144 149 152 158 160 150 158 149 154 159 157 159 146 155 156
142 151 171 149 169 147 151 152 159 163 162 153 150 150 154 149 154 157 140 144 145 158 153 136 147 154 144 149 145 149 159 150 157 154 163 150 147 154 157 156 159 151 162 158 161
180 163 135 157 158 173 156 163 154 157 158 160 163 157 149 152 150 152 156 154 158 154 155 150 149 151 151 157 158 153 152 155 152 160 155 158 153 152 160 156 160 160 161 161 162
133 150 178 169 127 162 170 172 158 152 149 153 159 163 158 161 162 150 149 158 159 159 161 160 153 157 156 158 155 148 150 164 164 153 161 154 160 160 156 159 161 162 168 169 162
178 167 167 128 158 174 164 160 162 149 136 157 159 162 155 160 162 163 162 160 160 161 158 153 155 152 148 150 150 155 151 154 153 152 157 156 159 156 162 161 166 164 167 168 164
204 171 169 172 166 141 169 163 163 167 162 169 171 166 144 155 144 164 159 157 151 150 154 157 157 155 157 166 164 169 167 159 157 144 161 159 155 149 159 164 167 173 169 164 173
185 195 203 187 164 177 170 173 177 173 163 167 166 167 176 173 167 164 155 162 164 169 168 170 169 167 170 162 161 160 160 164 160 160 159 163 167 168 169 169 168 193 185 179 185
182 190 185 187 204 190 199 142 180 176 171 172 176 151 125 169 162 165 160 172 141 169 174 169 160 163 162 161 160 160 147 163 164 167 168 160 162 160 183 188 191 180 187 182 181
192 194 198 201 197 186 191 198 216 213 216 210 190 178 179 180 179 178 171 170 174 171 168 165 165 167 166 183 183 170 171 172 173 180 181 183 183 178 181 182 187 192 201 199 204
190 185 188 193 193 189 187 190 190 197 178 182 193 211 214 209 208 204 197 207 187 182 179 179 180 182 182 183 180 185 187 186 181 182 185 185 183 196 199 212 213 206 211 216 211
191 197 184 186 192 198 185 188 208 206 195 193 189 189 183 182 182 204 201 207 207 206 208 210 214 218 209 217 213 214 211 209 214 216 205 211 209 217 210 199 211 205 218 219 190
190 196 186 192 189 192 183 176 189 194 198 200 198 201 197 190 203 198 192 189 188 186 192 188 188 193 196 203 202 201 203 199 198 197 210 218 216 209 211 209 213 205 203 200 193
181 182 191 185 182 177 183 189 189 191 189 188 189 187 189 191 193 200 202 202 202 216 222 217 226 213 208 210 200 212 209 207 196 195 196 196 200 202 202 200 195 183 188 192 194
184 175 179 182 182 183 183 184 188 185 185 182 188 189 193 199 210 206 201 197 199 209 210 205 205 214 211 220 226 224 217 216 214 213 207 204 204 202 200 200 206 201 199 186 183
182 181 173 177 178 174 174 182 184 182 182 182 185 184 187 189 191 192 195 196 202 206 206 208 212 215 213 220 215 214 223 223 227 239 250 195 201 214 209 220 208 211 213 209 196
187 184 182 178 178 174 177 177 175 178 179 180 182 184 187 189 187 189 193 196 189 193 196 199 206 196 201 216 215 222 214 218 213 225 216 226 236 234 215 210 211 211 216 215 211
187 178 183 182 185 182 179 177 177 176 176 182 184 184 175 183 187 190 193 194 195 189 196 197 193 186 198 190 205 210 212 219 213 225 216 229 236 234 232 223 213 201 213 216 210
184 184 183 186 180 185 184 185 183 183 183 182 186 185 187 193 198 197 197 207 206 204 204 217 212 209 214 206 200 211 200 206 216 216 218 210 205 215 236 228 212 201 200 198 206
158 171 182 184 189 189 180 182 179 185 186 185 182 178 179 190 178 186 190 187 186 196 202 196 194 214 223 226 233 201 199 215 200 219 195 212 227 231 235 225 216 214 201 191 207
182 183 166 180 186 188 190 187 181 178 184 186 181 174 170 172 187 196 193 191 200 201 209 206 197 208 204 210 204 218 205 211 193 209 210 201 225 205 207 221 217 210 201 198 207
192 162 175 174 173 171 180 183 178 177 181 180 180 178 173 185 187 191 185 194 182 198 187 197 187 188 204 210 200 227 201 224 205 191 198 192 212 227 234 223 216 211 206 200 192
182 198 189 177 175 182 177 170 185 185 180 189 187 186 190 181 187 196 182 194 190 199 200 204 202 211 199 195 207 229 225 222 230 180 204 194 192 194 235 224 215 212 207 200 196
213 194 197 191 191 187 193 188 190 180 179 187 173 191 176 186 198 193 205 195 199 190 188 188 192 204 216 206 195 194 231 231 225 218 208 210 209 187 192 219 222 212 206 200 199
197 210 208 195 198 197 188 193 196 193 189 194 198 189 187 181 191 198 183 190 189 207 199 224 210 203 204 200 237 253 209 198 219 218 207 199 212 187 203 182 221 213 207 200 199
Wind_Speed
74 62 67 65 68 67 66 62 52 62 61 58 57 51 54 42 41 53 50 34 37 43 38 31 42 36 43 41 45 24 22 40 30 46 32 53 55 28 46 50 35 54 53 43 42
64 76 69 69 69 70 70 68 62 65 65 57 50 51 51 50 50 46 43 43 48 46 46 47 49 47 42 34 39 50 48 44 45 32 40 42 23 54 44 30 51 52 49 53 56
72 74 78 73 75 72 71 70 59 67 66 56 56 55 61 53 52 49 46 48 47 52 49 48 47 49 50 52 48 48 40 48 53 51 52 30 50 35 51 40 55 40 56 37 60
68 78 78 77 69 65 66 65 73 67 72 65 63 54 65 64 65 64 50 51 52 47 49 50 52 53 48 48 48 51 44 51 56 59 58 49 55 43 53 55 52 54 38 57 56
65 68 79 70 80 64 66 68 72 74 74 69 66 64 65 60 67 67 52 53 53 61 56 50 55 59 58 58 51 55 59 54 61 51 58 50 42 55 56 54 56 42 59 57 62
80 77 62 74 73 81 77 78 74 74 75 75 76 72 65 68 64 66 69 66 67 62 62 59 58 60 62 63 61 60 59 61 58 63 60 61 55 55 62 55 61 58 59 59 60
65 71 82 81 60 80 83 84 80 71 68 73 76 78 75 76 76 64 62 70 69 68 67 65 62 62 62 65 60 54 57 64 66 63 65 56 65 64 57 60 62 63 67 69 54
87 84 80 64 80 84 83 79 81 70 61 81 80 82 72 77 78 78 76 72 70 71 67 63 63 61 58 60 59 63 57 64 65 58 63 62 65 61 67 65 67 65 65 68 63
70 74 78 87 84 71 83 85 86 86 85 87 89 87 67 71 64 81 75 71 62 61 67 69 69 67 69 75 74 75 73 68 65 46 69 65 60 53 65 67 68 73 67 59 70
77 71 71 77 76 89 87 87 88 89 86 89 88 87 90 91 86 83 76 80 82 85 84 83 81 80 79 71 70 67 66 70 67 66 68 70 72 72 73 73 69 71 71 68 64
79 74 79 79 69 81 85 74 91 92 89 90 91 73 59 90 81 83 78 88 55 84 85 81 75 78 77 76 73 73 50 75 74 76 77 64 62 59 79 75 74 72 69 64 65
70 68 68 67 71 79 76 73 67 72 70 76 90 93 94 94 94 95 91 89 93 88 84 80 81 79 80 81 82 80 79 77 79 79 77 75 75 75 73 72 75 72 65 60 58
70 74 72 69 70 74 76 75 77 72 85 82 77 68 68 76 77 79 84 81 94 94 94 92 92 92 91 90 89 87 86 82 82 81 79 80 78 79 73 65 59 59 55 51 44
71 64 74 73 66 64 75 74 61 63 72 75 76 76 82 83 84 73 75 73 77 79 76 75 75 72 75 73 75 76 76 74 70 68 74 68 65 62 59 58 57 53 49 42 41
67 66 70 68 69 66 75 80 70 67 63 64 67 67 70 79 70 73 79 81 82 81 78 80 79 77 76 74 72 74 72 70 69 67 63 64 57 59 60 53 50 46 45 40 36
74 71 67 71 73 77 72 69 69 67 65 68 71 73 72 73 74 68 69 70 72 61 57 63 58 68 73 70 73 67 69 66 66 66 65 63 58 61 55 52 47 47 46 44 38
76 78 74 72 72 72 72 73 72 68 69 70 70 72 72 70 63 66 68 71 72 66 66 71 70 64 66 60 56 59 63 61 60 60 60 62 60 59 56 52 49 45 45 45 43
81 80 81 78 77 79 79 76 73 72 74 74 74 75 75 74 73 73 72 71 69 68 70 68 64 63 64 60 60 56 51 52 52 51 49 59 59 59 54 54 52 48 46 44 44
83 84 83 83 83 82 81 78 77 77 76 77 77 76 76 77 77 76 74 73 73 74 73 72 69 68 64 60 58 54 55 53 52 51 52 52 52 54 54 52 51 47 46 45 44
86 87 86 87 86 85 82 80 80 80 81 81 80 79 79 78 80 80 79 77 78 76 76 73 70 67 68 59 60 56 53 52 49 42 46 46 50 51 48 47 49 47 44 44 44
90 89 89 90 90 88 84 84 84 84 84 84 81 80 79 77 78 79 79 72 75 76 77 69 70 69 68 66 61 60 53 57 51 45 47 49 54 52 45 42 48 47 44 40 43
72 88 92 92 91 90 89 88 89 87 86 85 85 82 80 81 82 83 82 79 79 81 77 78 72 68 60 60 59 60 60 58 48 49 46 47 48 49 43 41 45 44 42 43 43
93 97 81 92 92 91 91 91 91 88 87 88 89 82 80 79 85 83 84 83 78 79 73 75 76 72 67 66 67 61 57 59 46 48 43 48 46 53 41 42 44 42 42 42 42
101 80 97 95 94 89 94 95 93 93 93 91 91 90 83 89 88 88 84 86 83 82 84 84 72 67 76 71 73 65 65 63 53 41 52 49 52 50 46 42 43 42 41 42 43
102 105 106 101 99 102 98 91 98 98 94 96 94 93 93 92 92 89 87 88 90 84 86 82 81 79 81 77 72 65 67 67 60 53 49 57 55 57 45 43 43 42 42 43 44
110 109 110 109 108 106 105 104 103 100 98 99 83 97 87 94 93 92 87 90 89 93 90 85 74 83 77 81 76 68 66 66 64 61 56 56 53 61 38 44 46 43 43 44 44
108 113 112 111 109 109 106 105 106 104 102 99 99 100 98 89 96 95 92 93 87 86 92 80 85 85 84 77 75 66 68 66 68 64 59 52 57 57 49 49 45 44 44 46 45
Wind_Direction
230 235 234 233 240 240 242 245 242 241 249 250 249 250 251 257 259 263 263 265 268 274 276 271 284 280 292 292 298 282 295 308 306 315 313 321 323 320 330 339 346 338 338 337 338
234 230 236 235 236 239 243 239 245 246 249 252 247 248 250 252 263 263 263 267 273 274 274 275 282 284 283 285 290 298 302 305 310 294 316 314 302 321 331 321 327 326 331 332 332
234 233 233 237 233 236 238 241 251 246 249 252 252 251 254 256 260 260 262 265 267 272 278 276 276 284 288 288 293 294 296 303 305 306 311 298 316 317 320 327 321 331 324 330 325
234 232 232 237 242 238 244 247 240 247 248 254 252 256 258 258 259 262 258 268 271 269 273 277 282 285 280 287 291 292 296 299 302 303 304 308 309 312 315 316 321 322 326 322 322
235 236 234 237 236 243 243 248 245 244 245 252 255 257 257 259 261 262 259 266 270 272 274 270 277 279 283 285 288 292 292 297 297 296 297 305 308 309 311 315 316 321 317 318 318
233 235 237 237 238 236 242 241 250 249 249 249 249 252 257 258 259 262 264 266 268 269 271 273 275 277 280 281 283 286 289 292 295 293 299 299 304 308 307 311 311 313 313 314 317
236 237 237 236 239 240 240 239 246 247 249 252 252 251 254 255 257 259 261 265 266 268 270 271 272 274 277 278 281 284 288 288 288 294 293 300 299 301 305 307 307 309 309 312 314
236 237 239 237 238 240 242 244 246 246 248 251 252 252 254 256 257 259 260 262 263 265 267 270 271 273 273 276 279 281 284 284 286 293 293 296 296 298 300 301 301 305 306 307 310
243 240 240 238 240 241 243 243 245 247 249 249 250 252 254 258 256 260 262 263 263 263 265 268 270 271 272 272 274 275 275 278 283 288 286 289 293 296 295 296 298 298 301 304 303
239 241 243 243 243 242 243 245 245 247 248 250 252 253 253 254 256 260 259 262 264 265 266 267 268 269 271 275 275 276 277 276 279 281 283 286 287 288 289 293 295 293 295 295 297
239 241 241 242 245 245 247 245 247 247 249 250 252 252 248 255 256 257 257 258 258 262 263 264 266 268 270 271 272 273 277 278 280 280 281 287 290 290 285 287 290 289 292 293 295
238 239 241 241 243 244 246 248 251 253 254 254 253 254 256 256 258 258 259 261 262 261 262 264 266 267 269 269 270 273 273 275 276 277 279 281 282 285 288 289 289 289 291 292 295
237 238 241 241 243 245 247 247 249 250 251 252 254 256 257 257 258 258 260 260 262 264 264 266 267 268 268 271 271 272 273 275 275 278 278 280 282 284 286 288 287 289 291 293 290
238 238 239 241 242 244 246 248 249 248 250 252 253 254 256 256 257 259 260 261 262 264 265 266 264 265 268 267 269 272 273 275 276 276 278 278 279 283 282 281 285 288 289 288 290
238 239 239 240 242 243 244 246 247 248 250 253 255 255 254 256 257 259 261 262 262 263 265 266 266 267 268 268 270 272 273 274 276 277 278 277 279 277 277 280 282 285 287 285 284
238 238 240 241 242 243 244 246 248 251 254 255 257 257 256 257 258 259 260 261 262 260 260 260 261 264 265 267 269 267 270 273 275 276 277 278 277 274 276 277 278 279 282 284 285
238 238 238 241 243 245 247 247 250 250 253 255 258 260 260 261 258 261 262 264 264 264 262 263 264 262 265 263 265 268 269 268 268 269 271 272 274 273 276 277 277 274 273 279 284
239 239 240 240 241 244 246 249 251 251 252 254 257 259 261 263 264 265 265 265 266 266 267 269 267 268 268 267 268 269 268 268 267 269 269 271 272 270 273 272 275 275 274 272 274
237 240 241 242 242 243 245 248 251 253 255 256 257 259 262 265 266 267 267 268 269 270 271 272 273 275 276 274 275 272 270 269 269 268 267 269 271 269 268 269 271 274 274 274 272
236 239 240 242 242 244 246 248 250 252 253 255 257 258 260 263 266 267 267 269 268 269 270 271 274 275 277 277 278 276 276 272 268 270 268 268 269 269 269 268 268 270 272 272 272
237 238 239 240 243 243 244 246 248 250 252 254 256 257 259 260 261 263 265 264 267 269 271 271 271 272 272 276 276 276 275 272 267 268 263 265 268 269 270 268 265 269 271 274 275
243 241 241 243 243 243 245 245 247 248 250 253 255 257 260 261 264 266 266 267 269 270 269 272 273 270 268 269 266 273 270 270 271 267 268 270 267 266 268 266 265 264 267 272 272
238 237 242 243 243 244 243 245 248 251 251 252 254 257 260 261 262 260 263 266 263 264 265 267 273 269 272 270 271 268 272 271 272 270 269 265 262 263 260 263 262 262 262 265 268
237 245 244 244 245 248 245 245 248 251 252 253 255 258 261 261 262 262 264 263 268 265 271 268 274 278 271 269 273 266 268 265 272 270 258 261 260 259 260 259 260 261 261 262 264
240 236 238 244 246 243 247 252 247 249 252 252 254 257 257 262 261 258 266 262 265 262 264 266 267 266 271 274 271 263 262 265 264 257 261 256 256 259 259 258 257 257 258 259 262
234 238 238 240 240 242 242 245 246 250 252 251 258 252 260 259 257 259 258 260 261 266 269 270 266 267 264 266 271 273 258 259 261 260 258 254 257 257 256 255 255 254 255 258 260
239 235 236 241 241 242 245 246 247 249 250 251 251 253 255 261 258 258 263 262 264 260 262 266 263 266 266 268 263 253 266 263 256 257 256 253 254 254 252 254 255 253 254 256 259